Ahwaz, Iran

10:33 AM +0430 on April 24, 2017 (GMT +0430)
Ahwaz

Weather History for OIAW - March, 2013

Change the Weather History Date:

Saturday, March 30, 2013

  Actual Average Record
Temperature  
Mean Temperature 76 °F -  
Max Temperature 91 °F - - ()
Min Temperature 62 °F - - ()
Cooling Degree Days 12    
Growing Degree Days 26 (Base 50)    
Moisture  
Dew Point 45 °F    
Average Humidity 33    
Maximum Humidity 64    
Minimum Humidity 8    
Precipitation  
Precipitation 0.00 in - - ()
Sea Level Pressure  
Sea Level Pressure 29.92 in    
Wind  
Wind Speed 3 mph ()    
Max Wind Speed 12 mph    
Max Gust Speed -    
Visibility 6.0 miles    
Events      
T = Trace of Precipitation, MM = Missing Value Source: Averaged Metar Reports

Daily Weather History Graph

Daily Weather History Graph

Search for Another Location

Airport or City:

Trip Planner

Search our weather history database for the weather conditions in past years. The results will help you decide how hot, cold, wet, or windy it might be!

Date:

Astronomy

Mar. 30, 2013 Rise Set
Actual Time 7:06 AM +0430 7:33 PM +0430
Civil Twilight 6:42 AM +0430 7:57 PM +0430
Nautical Twilight 6:13 AM +0430 8:26 PM +0430
Astronomical Twilight 5:44 AM +0430 8:55 PM +0430
Moon 10:59 PM +0430 (3/30) 8:56 AM +0430 (3/30)
Length of Visible Light 13h 15m
Length of Day
12h 26m
Waning Gibbous, 89% of the Moon is Illuminated
Mar 30
Waning Gibbous
Apr 3
Last Quarter
Apr 10
New
Apr 18
First Quarter
Apr 26
Full

Hourly Weather History & Observations

Time (+0430) Temp. Dew Point Humidity Pressure Visibility Wind Dir Wind Speed Gust Speed Precip Events Conditions
12:30 AM 77.0 °F 51.8 °F 41% 29.92 in - NW 2.3 mph - N/A   Clear
1:30 AM 75.2 °F 51.8 °F 44% 29.92 in - WNW 6.9 mph - N/A   Clear
2:30 AM 73.4 °F 51.8 °F 47% 29.92 in - NNW 4.6 mph - N/A   Clear
3:30 AM 71.6 °F 51.8 °F 50% 29.92 in - North 4.6 mph - N/A   Clear
4:30 AM 70 °F 45 °F 30% 29.94 in 6 mi NNE 2.2 mph - -   Clear
4:30 AM 69.8 °F 44.6 °F 40% 29.92 in - NNE 2.3 mph - N/A   Clear
5:30 AM 66.2 °F 46.4 °F 49% 29.92 in - NE 2.3 mph - N/A   Clear
6:30 AM 62.6 °F 46.4 °F 55% 29.92 in - North 2.3 mph - N/A   Clear
7:30 AM 64.4 °F 51.8 °F 64% 29.92 in - Calm Calm - N/A   Clear
7:58 AM 66.2 °F 51.8 °F 60% 29.92 in - Calm Calm - N/A   Clear
8:20 AM 68.0 °F 51.8 °F 56% 29.95 in - Calm Calm - N/A   Clear
8:30 AM 68.0 °F 51.8 °F 56% 29.95 in - Calm Calm - N/A   Clear
9:00 AM 69.8 °F 51.8 °F 53% 29.95 in - Calm Calm - N/A   Clear
9:20 AM 71.6 °F 50.0 °F 46% 29.98 in - Calm Calm - N/A   Clear
9:30 AM 71.6 °F 50.0 °F 46% 29.98 in - Calm Calm - N/A   Clear
9:58 AM 73.4 °F 50.0 °F 44% 29.98 in - Calm Calm - N/A   Clear
10:20 AM 78.8 °F 46.4 °F 32% 29.98 in - Calm Calm - N/A   Clear
10:30 AM 79 °F 46 °F 21% 29.98 in 6 mi Calm Calm - -  
10:30 AM 78.8 °F 46.4 °F 32% 29.98 in - Calm Calm - N/A   Clear
11:00 AM 80.6 °F 46.4 °F 30% 29.98 in - Calm Calm - N/A   Clear
11:20 AM 82.4 °F 46.4 °F 28% 29.98 in - ENE 6.9 mph - N/A   Clear
11:30 AM 82.4 °F 46.4 °F 28% 29.98 in - ENE 6.9 mph - N/A   Clear
11:58 AM 84.2 °F 46.4 °F 27% 29.95 in - North 9.2 mph - N/A   Clear
12:20 PM 84.2 °F 42.8 °F 23% 29.98 in - NW 4.6 mph - N/A   Clear
12:30 PM 84.2 °F 42.8 °F 23% 29.98 in - NW 4.6 mph - N/A   Clear
1:00 PM 86.0 °F 42.8 °F 22% 29.95 in - North 4.6 mph - N/A   Clear
1:20 PM 87.8 °F 35.6 °F 16% 29.95 in - North 11.5 mph - N/A   Clear
1:30 PM 87.8 °F 35.6 °F 16% 29.95 in - North 11.5 mph - N/A   Clear
2:00 PM 89.6 °F 37.4 °F 16% 29.95 in - North 9.2 mph - N/A   Clear
2:20 PM 89.6 °F 33.8 °F 14% 29.92 in - NNW 9.2 mph - N/A   Clear
2:30 PM 89.6 °F 33.8 °F 14% 29.92 in - NNW 9.2 mph - N/A   Clear
2:58 PM 89.6 °F 35.6 °F 15% 29.92 in - NNW 6.9 mph - N/A   Clear
3:20 PM 91.4 °F 37.4 °F 15% 29.89 in - NNW 11.5 mph - N/A   Clear
3:30 PM 91.4 °F 37.4 °F 15% 29.89 in - NNW 11.5 mph - N/A   Clear
3:58 PM 91.4 °F 37.4 °F 15% 29.89 in - North 4.6 mph - N/A   Clear
4:20 PM 89.6 °F 35.6 °F 15% 29.89 in - North 9.2 mph - N/A   Clear
4:30 PM 90 °F 36 °F 8% 29.90 in 6 mi North 8.9 mph - -  
4:30 PM 89.6 °F 35.6 °F 15% 29.89 in - North 9.2 mph - N/A   Clear
4:58 PM 89.6 °F 35.6 °F 15% 29.89 in - North 9.2 mph - N/A   Clear
5:20 PM 87.8 °F 35.6 °F 16% 29.86 in - North 6.9 mph - N/A   Clear
5:30 PM 87.8 °F 35.6 °F 16% 29.86 in - North 6.9 mph - N/A   Clear
6:00 PM 87.8 °F 44.6 °F 22% 29.86 in - ENE 6.9 mph - N/A   Clear
6:20 PM 87.8 °F 44.6 °F 22% 29.86 in - NE 6.9 mph - N/A   Clear
7:20 PM 86.0 °F 46.4 °F 25% 29.86 in - Calm Calm - N/A   Clear
7:30 PM 86.0 °F 46.4 °F 25% 29.86 in - Calm Calm - N/A   Clear
8:00 PM 82.4 °F 46.4 °F 28% 29.86 in - Calm Calm - N/A   Clear
8:30 PM 77.0 °F 50.0 °F 39% 29.86 in - Calm Calm - N/A   Clear
9:00 PM 77.0 °F 50.0 °F 39% 29.86 in - Calm Calm - N/A   Clear
9:30 PM 77.0 °F 55.4 °F 47% 29.89 in - Calm Calm - N/A   Clear
10:00 PM 75.2 °F 55.4 °F 50% 29.89 in - Calm Calm - N/A   Clear
10:30 PM 74 °F 56 °F 44% 29.91 in 6 mi Calm Calm - -  
10:30 PM 73.4 °F 57.2 °F 57% 29.89 in - Calm Calm - N/A   Clear
11:00 PM 71.6 °F 57.2 °F 60% 29.89 in - Calm Calm - N/A   Clear
11:30 PM 73.4 °F 57.2 °F 57% 29.89 in - WNW 4.6 mph - N/A   Clear